User: anonymous   Login
Location: Sungai Jaoh
(2.9167°N, 113.9167°E)
Time: 05:53:18
(UTC+00:00)
Language:

FENGYUN 1C DEB - Orbit

View from above orbital plane
View from above orbital plane
View from above satellite
View from above satellite

Ground track
Ground track

The orbit data is extracted from the following two-line orbital elements,

1 29800U 99025CS  21297.88778181  .00000848  00000-0  67996-3 0  9993
2 29800  98.3117  92.2490 0150682 111.1535  40.8694 13.87826378745667
Epoch (UTC): 24 October 2021 21:18:24
Eccentricity: 0.0150682
inclination: 98.3117°
perigee height: 826 km
apogee height: 1046 km
right ascension of ascending node: 92.2490°
argument of perigee: 111.1535°
revolutions per day: 13.87826378
mean anomaly at epoch: 40.8694°
orbit number at epoch: 74566

The dashed part of the orbit path shows where the satellite is in the earth's shadow,  

DLR